Weather History for Russell, KS

Change the Weather History Date:

Saturday, September 7, 2013

  Actual Average Record
Temperature  
Mean Temperature 86 °F -  
Max Temperature 104 °F 86 °F 104 °F (2013)
Min Temperature 70 °F 61 °F 44 °F (1956)
Cooling Degree Days 21    
Growing Degree Days 36 (Base 50)    
Moisture  
Dew Point 60 °F    
Average Humidity 46    
Maximum Humidity 73    
Minimum Humidity 20    
Precipitation  
Precipitation 0.00 in - - ()
Sea Level Pressure  
Sea Level Pressure 29.87 in    
Wind  
Wind Speed 11 mph (South)    
Max Wind Speed 16 mph    
Max Gust Speed 22 mph    
Visibility 10 miles    
Events      
Averages and records for this station are not official NWS values.
T = Trace of Precipitation, MM = Missing Value Source: NWS Daily Summary

Daily Weather History Graph

Daily Weather History Graph

Search for Another Location

Airport:

Trip Planner

Search our weather history database for the weather conditions in past years. The results will help you decide how hot, cold, wet, or windy it might be!

Date:

Astronomy

Sep. 07, 2013 Rise Set
Actual Time 7:09 AM CDT 7:55 PM CDT
Civil Twilight 6:42 AM CDT 8:22 PM CDT
Nautical Twilight 6:10 AM CDT 8:54 PM CDT
Astronomical Twilight 5:37 AM CDT 9:27 PM CDT
Moon 9:23 AM CDT (9/7) 8:57 PM CDT (9/7)
Length of Visible Light 13h 39m
Length of Day
12h 45m
Waxing Crescent, 5% of the Moon is Illuminated
Sep 7
Waxing Crescent
Sep 12
First Quarter
Sep 19
Full
Sep 26
Last Quarter
Oct 4
New

Hourly Weather History & Observations

Time (CDT) Temp. Heat Index Dew Point Humidity Pressure Visibility Wind Dir Wind Speed Gust Speed Precip Events Conditions
12:53 AM 78.1 °F - 61.0 °F 56% 29.90 in 10.0 mi South 12.7 mph - N/A   Clear
1:53 AM 77.0 °F - 61.0 °F 58% 29.91 in 10.0 mi South 11.5 mph - N/A   Clear
2:53 AM 75.9 °F - 61.0 °F 60% 29.90 in 10.0 mi South 11.5 mph - N/A   Clear
3:53 AM 75.0 °F - 61.0 °F 62% 29.90 in 10.0 mi SSW 10.4 mph - N/A   Clear
4:53 AM 73.0 °F - 61.0 °F 66% 29.90 in 10.0 mi South 8.1 mph - N/A   Clear
5:53 AM 73.0 °F - 61.0 °F 66% 29.89 in 10.0 mi SSW 9.2 mph - N/A   Clear
6:53 AM 70.0 °F - 61.0 °F 73% 29.90 in 10.0 mi South 9.2 mph - N/A   Clear
7:53 AM 71.1 °F - 61.0 °F 70% 29.91 in 10.0 mi South 10.4 mph - N/A   Clear
8:53 AM 73.0 °F - 62.1 °F 68% 29.91 in 10.0 mi South 9.2 mph - N/A   Clear
9:53 AM 81.0 °F 81.9 °F 62.1 °F 52% 29.92 in 10.0 mi SSW 10.4 mph - N/A   Clear
10:53 AM 88.0 °F 87.6 °F 60.1 °F 39% 29.91 in 10.0 mi SSW 11.5 mph - N/A   Clear
11:53 AM 93.9 °F 94.0 °F 61.0 °F 33% 29.91 in 10.0 mi SSW 10.4 mph - N/A   Clear
12:53 PM 99.0 °F 99.5 °F 60.1 °F 28% 29.88 in 10.0 mi SW 8.1 mph - N/A   Clear
1:53 PM 102.0 °F 100.6 °F 55.0 °F 21% 29.86 in 10.0 mi SSW 12.7 mph 20.7 mph N/A   Clear
2:53 PM 102.0 °F 101.1 °F 55.9 °F 22% 29.85 in 10.0 mi SSW 8.1 mph 18.4 mph N/A   Clear
3:53 PM 102.9 °F 101.9 °F 55.9 °F 21% 29.83 in 10.0 mi South 13.8 mph 19.6 mph N/A   Clear
4:53 PM 102.9 °F 101.4 °F 55.0 °F 20% 29.82 in 10.0 mi South 12.7 mph 21.9 mph N/A   Clear
5:53 PM 102.0 °F 101.1 °F 55.9 °F 22% 29.81 in 10.0 mi SSE 16.1 mph - N/A   Clear
6:53 PM 98.1 °F 96.8 °F 57.0 °F 25% 29.83 in 10.0 mi South 15.0 mph - N/A   Clear
7:53 PM 89.1 °F 88.2 °F 59.0 °F 36% 29.83 in 10.0 mi SSE 9.2 mph - N/A   Clear
8:53 PM 84.9 °F 84.4 °F 59.0 °F 41% 29.84 in 10.0 mi South 9.2 mph - N/A   Clear
9:53 PM 82.0 °F 82.4 °F 60.1 °F 47% 29.85 in 10.0 mi South 9.2 mph - N/A   Clear
10:53 PM 79.0 °F - 61.0 °F 54% 29.86 in 10.0 mi South 10.4 mph - N/A   Clear
11:53 PM 78.1 °F - 61.0 °F 56% 29.86 in 10.0 mi South 10.4 mph - N/A   Clear